Audubon, IA

2:04 PM CST on January 20, 2017 (GMT -0600)
Audubon County

Weather History for KADU - February, 2014

Change the Weather History Date:

Wednesday, February 12, 2014

  Actual Average Record
Temperature  
Mean Temperature 20 °F -  
Max Temperature 26 °F 34 °F 69 °F (1990)
Min Temperature 15 °F 12 °F -24 °F (1988)
Degree Days  
Heating Degree Days 44    
Moisture  
Dew Point 12 °F    
Average Humidity 68    
Maximum Humidity 80    
Minimum Humidity 53    
Precipitation  
Precipitation 0.00 in - - ()
Sea Level Pressure  
Sea Level Pressure 30.01 in    
Wind  
Wind Speed 10 mph (SSW)    
Max Wind Speed 21 mph    
Max Gust Speed 25 mph    
Visibility 9 miles    
Events Snow    
Averages and records for this station are not official NWS values.
T = Trace of Precipitation, MM = Missing Value Source: NWS Daily Summary

Daily Weather History Graph

Daily Weather History Graph

Search for Another Location

Airport or City:

Trip Planner

Search our weather history database for the weather conditions in past years. The results will help you decide how hot, cold, wet, or windy it might be!

Date:

Astronomy

Feb. 12, 2014 Rise Set
Actual Time 7:19 AM CST 5:49 PM CST
Civil Twilight 6:50 AM CST 6:18 PM CST
Nautical Twilight 6:17 AM CST 6:50 PM CST
Astronomical Twilight 5:45 AM CST 7:23 PM CST
Moon 4:03 PM CST (2/12) 5:37 AM CST (2/12)
Length of Visible Light 11h 27m
Length of Day
10h 30m
Waxing Gibbous, 95% of the Moon is Illuminated
Feb 12
Waxing Gibbous
Feb 14
Full
Feb 22
Last Quarter
Mar 1
New
Mar 8
First Quarter

Hourly Weather History & Observations

Time (CST) Temp. Windchill Dew Point Humidity Pressure Visibility Wind Dir Wind Speed Gust Speed Precip Events Conditions
12:15 AM 15.8 °F 1.4 °F 1.4 °F 53% 30.09 in 10.0 mi South 13.8 mph 19.6 mph N/A   Mostly Cloudy
12:35 AM 15.8 °F 1.4 °F 1.4 °F 53% 30.10 in 10.0 mi South 13.8 mph 18.4 mph N/A   Mostly Cloudy
12:55 AM 15.8 °F 1.4 °F 1.4 °F 53% 30.09 in 10.0 mi South 13.8 mph 23.0 mph N/A   Scattered Clouds
1:15 AM 15.8 °F 2.7 °F 1.4 °F 53% 30.07 in 10.0 mi South 11.5 mph - N/A   Mostly Cloudy
1:35 AM 15.8 °F 2.1 °F 1.4 °F 53% 30.06 in 10.0 mi South 12.7 mph 18.4 mph N/A   Scattered Clouds
1:55 AM 15.8 °F 2.1 °F 3.2 °F 58% 30.06 in 10.0 mi SSW 12.7 mph - N/A   Mostly Cloudy
2:15 AM 17.6 °F 3.2 °F 3.2 °F 53% 30.05 in 10.0 mi South 15.0 mph 20.7 mph N/A   Scattered Clouds
2:35 AM 17.6 °F 2.2 °F 3.2 °F 53% 30.04 in 10.0 mi South 17.3 mph 23.0 mph N/A   Scattered Clouds
2:55 AM 17.6 °F 0.9 °F 3.2 °F 53% 30.03 in 10.0 mi South 20.7 mph 25.3 mph N/A   Scattered Clouds
3:15 AM 17.6 °F 1.7 °F 3.2 °F 53% 30.02 in 10.0 mi South 18.4 mph 24.2 mph N/A   Mostly Cloudy
3:35 AM 17.6 °F 2.7 °F 5.0 °F 58% 30.03 in 10.0 mi South 16.1 mph 20.7 mph N/A   Mostly Cloudy
3:55 AM 17.6 °F 3.7 °F 5.0 °F 58% 30.04 in 4.0 mi SSW 13.8 mph 20.7 mph N/A Snow Light Snow
4:15 AM 17.6 °F 4.3 °F 6.8 °F 63% 30.03 in 1.5 mi SSW 12.7 mph 21.9 mph N/A Snow Light Snow
4:30 AM 17.6 °F 5.7 °F 8.6 °F 68% 30.02 in 3.0 mi South 10.4 mph - N/A Snow Light Snow
4:55 AM 17.6 °F 5.0 °F 8.6 °F 68% 30.02 in 10.0 mi SSW 11.5 mph 16.1 mph N/A   Overcast
5:15 AM 17.6 °F 7.3 °F 8.6 °F 68% 30.02 in 10.0 mi South 8.1 mph - N/A   Mostly Cloudy
5:35 AM 17.6 °F 5.7 °F 8.6 °F 68% 30.02 in 10.0 mi SSW 10.4 mph - N/A   Mostly Cloudy
5:55 AM 17.6 °F 7.3 °F 8.6 °F 68% 30.02 in 10.0 mi SSW 8.1 mph - N/A   Overcast
6:15 AM 17.6 °F 7.3 °F 8.6 °F 68% 30.02 in 10.0 mi South 8.1 mph - N/A   Overcast
6:35 AM 17.6 °F 9.3 °F 8.6 °F 68% 30.02 in 10.0 mi South 5.8 mph - N/A   Overcast
6:55 AM 17.6 °F 9.3 °F 8.6 °F 68% 30.02 in 10.0 mi South 5.8 mph - N/A   Overcast
7:15 AM 17.6 °F 10.7 °F 8.6 °F 68% 30.03 in 10.0 mi SSW 4.6 mph - N/A   Overcast
7:35 AM 17.6 °F 12.3 °F 8.6 °F 68% 30.04 in 10.0 mi SSW 3.5 mph - N/A   Scattered Clouds
7:55 AM 17.6 °F 12.3 °F 8.6 °F 68% 30.04 in 10.0 mi SW 3.5 mph - N/A   Clear
8:15 AM 19.4 °F 14.3 °F 8.6 °F 63% 30.05 in 10.0 mi SW 3.5 mph - N/A   Clear
8:35 AM 19.4 °F 14.3 °F 8.6 °F 63% 30.05 in 10.0 mi West 3.5 mph - N/A   Clear
8:55 AM 19.4 °F - 10.4 °F 68% 30.05 in 10.0 mi Calm Calm - N/A   Clear
9:15 AM 19.4 °F - 10.4 °F 68% 30.05 in 10.0 mi Calm Calm - N/A   Clear
9:35 AM 21.2 °F 16.4 °F 10.4 °F 63% 30.05 in 10.0 mi WNW 3.5 mph - N/A   Scattered Clouds
9:55 AM 23.0 °F 17.0 °F 10.4 °F 59% 30.05 in 10.0 mi NW 4.6 mph - N/A   Scattered Clouds
10:15 AM 24.8 °F 16.9 °F 12.2 °F 59% 30.06 in 10.0 mi NNW 6.9 mph - N/A   Clear
10:35 AM 24.8 °F 15.3 °F 12.2 °F 59% 30.06 in 7.0 mi NNW 9.2 mph - N/A Snow Light Snow
10:55 AM 24.8 °F 15.3 °F 14.0 °F 64% 30.07 in 7.0 mi NNW 9.2 mph - N/A Snow Light Snow
11:15 AM 24.8 °F 14.6 °F 15.8 °F 69% 30.06 in 10.0 mi North 10.4 mph - N/A   Scattered Clouds
11:35 AM 24.8 °F 12.9 °F 15.8 °F 69% 30.06 in 10.0 mi North 13.8 mph - N/A   Scattered Clouds
11:55 AM 24.8 °F 12.9 °F 15.8 °F 69% 30.06 in 10.0 mi North 13.8 mph - N/A   Scattered Clouds
12:15 PM 26.6 °F 16.8 °F 17.6 °F 69% 30.05 in 10.0 mi North 10.4 mph - N/A   Clear
12:35 PM 26.6 °F 15.7 °F 17.6 °F 69% 30.06 in 10.0 mi NNW 12.7 mph 17.3 mph N/A   Clear
12:55 PM 26.6 °F 15.7 °F 17.6 °F 69% 30.05 in 10.0 mi North 12.7 mph - N/A   Clear
1:15 PM 26.6 °F 18.2 °F 17.6 °F 69% 30.04 in 10.0 mi North 8.1 mph - N/A   Clear
1:35 PM 26.6 °F 19.1 °F 17.6 °F 69% 30.03 in 10.0 mi North 6.9 mph - N/A   Clear
1:55 PM 26.6 °F 19.1 °F 17.6 °F 69% 30.02 in 10.0 mi North 6.9 mph - N/A   Clear
2:15 PM 26.6 °F 16.8 °F 17.6 °F 69% 30.05 in 10.0 mi NNW 10.4 mph - N/A   Clear
2:35 PM 26.6 °F 19.1 °F 17.6 °F 69% 30.04 in 10.0 mi NW 6.9 mph - N/A   Clear
2:55 PM 26.6 °F 18.2 °F 17.6 °F 69% 30.03 in 10.0 mi NW 8.1 mph - N/A   Clear
3:15 PM 26.6 °F 18.2 °F 17.6 °F 69% 30.01 in 10.0 mi North 8.1 mph - N/A   Clear
3:35 PM 26.6 °F 19.1 °F 17.6 °F 69% 30.01 in 10.0 mi North 6.9 mph - N/A   Clear
3:50 PM 26.6 °F 20.0 °F 17.6 °F 69% 30.01 in 10.0 mi North 5.8 mph - N/A   Clear
4:15 PM 26.6 °F 21.2 °F 17.6 °F 69% 30.00 in 10.0 mi NE 4.6 mph - N/A   Clear
4:35 PM 26.6 °F - 17.6 °F 69% 29.98 in 10.0 mi Calm Calm - N/A   Clear
4:55 PM 24.8 °F - 17.6 °F 74% 29.98 in 10.0 mi Calm Calm - N/A   Clear
5:15 PM 24.8 °F 19.1 °F 17.6 °F 74% 29.97 in 10.0 mi ESE 4.6 mph - N/A   Clear
5:35 PM 24.8 °F 19.1 °F 17.6 °F 74% 29.96 in 10.0 mi SSE 4.6 mph - N/A   Clear
5:55 PM 24.8 °F 19.1 °F 17.6 °F 74% 29.95 in 10.0 mi South 4.6 mph - N/A   Clear
6:15 PM 24.8 °F 19.1 °F 17.6 °F 74% 29.95 in 10.0 mi SSE 4.6 mph - N/A   Clear
6:35 PM 24.8 °F 20.5 °F 17.6 °F 74% 29.96 in 10.0 mi South 3.5 mph - N/A   Clear
6:55 PM 24.8 °F 20.5 °F 17.6 °F 74% 29.98 in 10.0 mi SSW 3.5 mph - N/A   Clear
7:15 PM 24.8 °F 19.1 °F 17.6 °F 74% 29.98 in 10.0 mi SSW 4.6 mph - N/A   Clear
7:35 PM 24.8 °F 17.9 °F 17.6 °F 74% 29.98 in 10.0 mi SSW 5.8 mph - N/A   Clear
7:55 PM 24.8 °F 17.9 °F 17.6 °F 74% 29.98 in 10.0 mi SW 5.8 mph - N/A   Clear
8:15 PM 24.8 °F 17.9 °F 17.6 °F 74% 29.97 in 7.0 mi SSW 5.8 mph - N/A   Clear
8:35 PM 24.8 °F 19.1 °F 17.6 °F 74% 29.96 in 7.0 mi SSW 4.6 mph - N/A   Clear
8:55 PM 24.8 °F 17.9 °F 17.6 °F 74% 29.94 in 10.0 mi South 5.8 mph - N/A   Clear
9:15 PM 24.8 °F 17.9 °F 17.6 °F 74% 29.91 in 7.0 mi South 5.8 mph - N/A   Clear
9:35 PM 23.0 °F 15.8 °F 15.8 °F 74% 29.91 in 7.0 mi South 5.8 mph - N/A   Clear
9:55 PM 21.2 °F 13.6 °F 15.8 °F 80% 29.90 in 7.0 mi South 5.8 mph - N/A   Clear
10:15 PM 21.2 °F 16.4 °F 15.8 °F 80% 29.89 in 7.0 mi SSW 3.5 mph - N/A   Clear
10:35 PM 21.2 °F 13.6 °F 15.8 °F 80% 29.89 in 7.0 mi SW 5.8 mph - N/A   Clear
10:55 PM 21.2 °F 12.6 °F 15.8 °F 80% 29.88 in 7.0 mi SSW 6.9 mph - N/A   Clear
11:15 PM 21.2 °F 12.6 °F 15.8 °F 80% 29.88 in 7.0 mi SSW 6.9 mph - N/A   Clear
11:35 PM 21.2 °F 10.9 °F 15.8 °F 80% 29.86 in 7.0 mi SSW 9.2 mph 16.1 mph N/A   Clear
11:55 PM 21.2 °F 10.1 °F 15.8 °F 80% 29.84 in 7.0 mi South 10.4 mph - N/A   Clear